EW0150 Weather Reports


time (UTC)temp
C
wind
direction
speed
KPH
gust
KPH
rain 1hr
cm
rain 24hr
cm
rain mn
cm
humidity
%
barometer
mb
20260510073006 13 91 14.5 25.7 0.00 0.00 0.00 59 1016.8
20260510072007 13 85 12.9 24.1 0.00 0.00 0.00 60 1016.7
20260510071004 13 126 11.3 19.3 0.00 0.00 0.00 63 1016.8
20260510070009 12 111 9.7 19.3 0.00 0.00 0.00 65 1016.9
20260510065007 12 132 11.3 19.3 0.00 0.00 0.00 69 1017.0
20260510064006 11 117 16.1 24.1 0.00 0.00 0.00 70 1016.9
20260510063006 11 124 12.9 24.1 0.00 0.00 0.00 72 1017.0
20260510062007 11 82 11.3 19.3 0.00 0.00 0.00 78 1016.9
20260510061005 10 115 12.9 20.9 0.00 0.00 0.00 81 1016.8
20260510060009 10 84 11.3 24.1 0.00 0.00 0.00 83 1016.7
20260510055006 9 84 9.7 17.7 0.00 0.00 0.00 87 1016.7
20260510054007 8 113 8.0 16.1 0.00 0.00 0.00 90 1016.8
20260510053007 8 89 6.4 14.5 0.00 0.00 0.00 92 1017.0
20260510052004 7 95 4.8 14.5 0.00 0.00 0.00 94 1017.0
20260510051006 6 88 3.2 6.4 0.00 0.00 0.00 94 1017.3
20260510050010 6 88 1.6 6.4 0.00 0.00 0.00 94 1017.3
20260510045004 5 17 1.6 4.8 0.00 0.00 0.00 94 1017.4
20260510044006 4 16 0.0 1.6 0.00 0.00 0.00 94 1017.6
20260510042006 3 16 0.0 3.2 0.00 0.00 0.00 94 1017.6
20260510041007 2 16 0.0 0.0 0.00 0.00 0.00 94 1017.8
20260510035006 2 16 0.0 0.0 0.00 0.00 0.00 94 1017.8
20260510034008 2 16 0.0 3.2 0.00 0.00 0.00 94 1018.0
20260510033009 2 16 1.6 3.2 0.00 0.00 0.00 94 1017.9
20260510031007 2 16 1.6 3.2 0.00 0.00 0.00 94 1017.9
20260510030009 2 16 1.6 3.2 0.00 0.00 0.00 93 1018.0
20260510025006 1 16 1.6 3.2 0.00 0.00 0.00 93 1017.9
20260510023010 2 16 0.0 0.0 0.00 0.00 0.00 93 1017.9
20260510022006 3 16 1.6 3.2 0.00 0.00 0.00 93 1017.9
20260510020009 3 16 0.0 0.0 0.00 0.00 0.00 93 1018.0
20260510015006 3 16 0.0 0.0 0.00 0.00 0.00 93 1018.1
20260510014006 3 16 0.0 0.0 0.00 0.00 0.00 93 1018.1
20260510012006 3 16 0.0 1.6 0.00 0.00 0.00 92 1018.2
20260510011005 3 16 0.0 1.6 0.00 0.00 0.00 92 1018.1
20260510010008 3 16 0.0 3.2 0.00 0.00 0.00 92 1018.2
20260510005006 3 16 1.6 3.2 0.00 0.00 0.00 92 1018.3
20260510004006 3 16 1.6 3.2 0.00 0.00 0.00 92 1018.3
20260510003008 3 16 0.0 1.6 0.00 0.00 0.00 92 1018.4
20260510002009 3 16 1.6 3.2 0.00 0.00 0.00 92 1018.5
20260510001008 4 16 1.6 3.2 0.00 0.00 0.00 91 1018.6
20260510000011 4 16 0.0 0.0 0.00 0.00 0.00 91 1018.7
20260509235010 4 16 0.0 0.0 0.00 0.00 0.00 91 1018.7
20260509234007 4 16 0.0 0.0 0.00 0.00 0.00 91 1018.7
20260509232005 5 16 0.0 1.6 0.00 0.00 0.00 91 1018.9
20260509230008 5 16 0.0 0.0 0.00 0.00 0.00 90 1019.0
20260509224005 6 16 0.0 0.0 0.00 0.00 0.00 90 1019.1
20260509223005 6 16 0.0 0.0 0.00 0.00 0.00 90 1019.2
20260509222004 6 16 0.0 0.0 0.00 0.00 0.00 89 1019.2
20260509214005 7 16 1.6 3.2 0.00 0.00 0.00 87 1019.3
20260509213005 7 16 1.6 3.2 0.00 0.00 0.00 87 1019.4
20260509212004 7 16 1.6 3.2 0.00 0.00 0.00 88 1019.5
20260509211005 7 15 3.2 6.4 0.00 0.00 0.00 87 1019.6
20260509210007 8 15 0.0 4.8 0.00 0.00 0.00 85 1019.5
20260509205005 8 15 0.0 1.6 0.00 0.00 0.00 83 1019.6
20260509204004 8 15 0.0 0.0 0.00 0.00 0.00 83 1019.6
20260509203004 9 15 0.0 1.6 0.00 0.00 0.00 81 1019.7
20260509202004 10 15 1.6 3.2 0.00 0.00 0.00 81 1019.7
20260509201004 10 15 0.0 1.6 0.00 0.00 0.00 81 1019.7
20260509200008 9 15 1.6 3.2 0.00 0.00 0.00 82 1019.7
20260509195004 9 15 1.6 3.2 0.00 0.00 0.00 81 1019.7
20260509194006 9 15 1.6 3.2 0.00 0.00 0.00 82 1019.7
20260509193007 9 15 0.0 1.6 0.00 0.00 0.00 82 1019.7
20260509192004 8 15 3.2 4.8 0.00 0.00 0.00 83 1019.7
20260509191007 8 10 3.2 6.4 0.00 0.00 0.00 83 1019.6
20260509190009 10 53 3.2 4.8 0.00 0.00 0.00 79 1019.6
20260509184004 10 53 3.2 6.4 0.00 0.00 0.00 77 1019.5
20260509183004 11 44 3.2 6.4 0.00 0.00 0.00 75 1019.5
20260509182004 11 37 4.8 6.4 0.00 0.00 0.00 74 1019.5
20260509181006 11 32 4.8 9.7 0.00 0.00 0.00 73 1019.5
20260509175005 11 34 4.8 8.0 0.00 0.00 0.00 72 1019.4
20260509174004 12 38 6.4 9.7 0.00 0.00 0.00 71 1019.3
20260509173005 12 39 6.4 11.3 0.00 0.00 0.00 70 1019.5
20260509171004 12 19 4.8 9.7 0.00 0.00 0.00 68 1019.4
20260509170007 12 30 6.4 9.7 0.00 0.00 0.00 68 1019.4
20260509165004 12 17 6.4 9.7 0.00 0.00 0.00 67 1019.3
20260509164004 12 28 8.0 14.5 0.00 0.00 0.00 67 1019.3
20260509163004 12 42 8.0 16.1 0.00 0.00 0.00 66 1019.2
20260509162005 12 39 9.7 16.1 0.00 0.00 0.00 66 1019.4
20260509161006 12 49 8.0 16.1 0.00 0.00 0.00 66 1019.4
20260509155006 12 58 6.4 14.5 0.00 0.00 0.00 66 1019.5
20260509154007 13 15 11.3 17.7 0.00 0.00 0.00 65 1019.5
20260509150006 13 46 9.7 17.7 0.00 0.00 0.00 63 1019.3
20260509145003 13 20 8.0 19.3 0.00 0.00 0.00 61 1019.4
20260509144005 13 9 8.0 16.1 0.00 0.00 0.00 62 1019.3
20260509143004 13 355 11.3 19.3 0.00 0.00 0.00 60 1019.4
20260509142004 13 22 9.7 16.1 0.00 0.00 0.00 59 1019.3
20260509141007 13 347 6.4 14.5 0.00 0.00 0.00 61 1019.4
20260509140009 13 346 8.0 14.5 0.00 0.00 0.00 62 1019.4
20260509135007 13 327 6.4 12.9 0.00 0.00 0.00 62 1019.5
20260509134006 13 355 6.4 14.5 0.00 0.00 0.00 63 1019.5
20260509133005 13 355 6.4 12.9 0.00 0.00 0.00 63 1019.6
20260509132005 13 26 9.7 16.1 0.00 0.00 0.00 62 1019.6
20260509131003 13 13 8.0 16.1 0.00 0.00 0.00 62 1019.5
20260509130005 13 5 8.0 14.5 0.00 0.00 0.00 63 1019.6
20260509125006 13 47 6.4 14.5 0.00 0.00 0.00 63 1019.6
20260509124006 13 43 8.0 16.1 0.00 0.00 0.00 61 1019.7
20260509123006 13 319 4.8 12.9 0.00 0.00 0.00 61 1019.7
20260509122005 13 355 8.0 17.7 0.00 0.00 0.00 61 1019.7
20260509121006 13 26 8.0 16.1 0.00 0.00 0.00 63 1019.7
20260509120007 13 13 8.0 16.1 0.00 0.00 0.00 61 1019.8
20260509115005 13 9 6.4 14.5 0.00 0.00 0.00 59 1019.8
20260509114005 13 36 6.4 12.9 0.00 0.00 0.00 59 1019.8
20260509113006 13 38 8.0 17.7 0.00 0.00 0.00 62 1019.8
20260509112005 13 9 8.0 16.1 0.00 0.00 0.00 62 1019.8
20260509111006 13 76 8.0 14.5 0.00 0.00 0.00 64 1019.9
20260509110007 13 360 8.0 12.9 0.00 0.00 0.00 62 1020.0
20260509105006 12 18 12.9 20.9 0.00 0.00 0.00 62 1019.9
20260509104005 13 32 8.0 19.3 0.00 0.00 0.00 63 1019.9
20260509102008 12 343 6.4 12.9 0.00 0.00 0.00 63 1020.0
20260509100009 12 30 11.3 17.7 0.00 0.00 0.00 65 1020.2
20260509095007 12 28 6.4 16.1 0.00 0.00 0.00 64 1020.2
20260509094008 13 24 4.8 12.9 0.00 0.00 0.00 65 1020.1
20260509093007 12 337 6.4 12.9 0.00 0.00 0.00 65 1020.1
20260509092007 12 304 6.4 17.7 0.00 0.00 0.00 65 1020.1
20260509090010 12 19 4.8 14.5 0.00 0.00 0.00 66 1020.2
20260509085008 12 355 8.0 14.5 0.00 0.00 0.00 66 1020.2
20260509082006 12 327 6.4 14.5 0.00 0.00 0.00 67 1020.0
20260509081005 12 30 6.4 12.9 0.00 0.00 0.00 68 1019.9
20260509080007 11 5 8.0 14.5 0.00 0.00 0.00 68 1019.9
20260509075006 11 30 3.2 8.0 0.00 0.00 0.00 70 1019.9
20260509074005 11 322 4.8 9.7 0.00 0.00 0.00 69 1019.9